Location: Mesa Verde
(33.6055°N, 114.7275°W)
Time: 18:08:46
(UTC+00:00)

Tiangong - Visible Passes

Search period start: 24 September 2021 00:00
Search period end: 04 October 2021 00:00
Orbit: 382 x 385 km, 41.5° (Epoch: 24 September)

Date Brightness Start Highest point End Pass type
(mag) Time Alt. Az. Time Alt. Az. Time Alt. Az.
24 Sep 3.0 12:02:13 20° S 12:03:15 23° SE 12:05:50 10° E visible
25 Sep 1.0 12:37:46 18° WSW 12:39:59 87° NNW 12:43:09 10° ENE visible
26 Sep 2.6 11:41:00 34° E 11:41:00 34° E 11:43:10 10° ENE visible
27 Sep 1.5 12:16:21 40° WNW 12:16:59 47° NNW 12:20:04 10° NE visible
28 Sep 4.1 11:19:25 16° ENE 11:19:25 16° ENE 11:20:12 10° ENE visible
28 Sep 2.8 12:51:37 11° WNW 12:54:08 23° NNW 12:56:45 10° NE visible
29 Sep 2.6 11:54:38 28° N 11:54:38 28° N 11:56:54 10° NE visible
30 Sep 3.1 12:29:49 15° NW 12:31:16 20° N 12:33:41 10° NE visible
01 Oct 3.9 11:32:46 16° NNE 11:32:46 16° NNE 11:33:44 10° NE visible
01 Oct 3.1 13:06:08 10° NW 13:08:34 20° N 13:11:00 10° ENE visible
02 Oct 3.1 12:07:54 18° NNW 12:08:24 19° N 12:10:44 10° NE visible
03 Oct 3.0 12:43:04 10° NW 12:45:40 24° NNE 12:48:18 10° ENE visible
